Weather History for Volkel, Netherlands

Change the Weather History Date:

Tuesday, September 24, 2013

  Actual Average Record
Temperature  
Mean Temperature 57 °F -  
Max Temperature 66 °F 58 °F 77 °F (2006)
Min Temperature 48 °F 44 °F 39 °F (2003)
Degree Days  
Heating Degree Days 8    
Growing Degree Days 7 (Base 50)    
Moisture  
Dew Point 55 °F    
Average Humidity 89    
Maximum Humidity 100    
Minimum Humidity 64    
Precipitation  
Precipitation 0.00 in - - ()
Sea Level Pressure  
Sea Level Pressure 30.04 in    
Wind  
Wind Speed 2 mph ()    
Max Wind Speed 6 mph    
Max Gust Speed -    
Visibility 2.7 miles    
Events Fog    
Averages and records for this station are not official NWS values.
T = Trace of Precipitation, MM = Missing Value Source: Averaged Metar Reports

Daily Weather History Graph

Daily Weather History Graph

Search for Another Location

Airport:

Trip Planner

Search our weather history database for the weather conditions in past years. The results will help you decide how hot, cold, wet, or windy it might be!

Date:

Astronomy

Sep. 24, 2013 Rise Set
Actual Time 7:26 AM CEST 7:30 PM CEST
Civil Twilight 6:53 AM CEST 8:04 PM CEST
Nautical Twilight 6:13 AM CEST 8:43 PM CEST
Astronomical Twilight 5:32 AM CEST 9:24 PM CEST
Moon 9:59 PM CEST (9/24) 1:02 PM CEST (9/24)
Length of Visible Light 13h 10m
Length of Day
12h 04m
Waning Gibbous, 75% of the Moon is Illuminated
Sep 24
Waning Gibbous
Sep 27
Last Quarter
Oct 5
New
Oct 12
First Quarter
Oct 19
Full

Hourly Weather History & Observations

Time (CEST) Temp. Dew Point Humidity Pressure Visibility Wind Dir Wind Speed Gust Speed Precip Events Conditions
12:12 AM 51.8 °F 51.8 °F 100% 30.15 in 0.4 mi Calm Calm - N/A Fog Fog
12:25 AM 51.8 °F 51.8 °F 100% 30.15 in 0.1 mi Calm Calm - N/A Fog Fog
12:34 AM 51.8 °F 51.8 °F 100% 30.15 in 0.1 mi NW 1.2 mph - N/A Fog Fog
12:40 AM 51.8 °F 50.0 °F 94% 30.15 in 1.5 mi NW 1.2 mph - N/A   Overcast
12:55 AM 51.8 °F 51.8 °F 100% 30.15 in 0.1 mi NW 1.2 mph - N/A Fog Fog
1:21 AM 50.0 °F 50.0 °F 100% 30.12 in 0.2 mi NW 1.2 mph - N/A Fog Fog
1:25 AM 50.0 °F 50.0 °F 100% 30.12 in 0.2 mi NW 1.2 mph - N/A Fog Fog
1:40 AM 50.0 °F 50.0 °F 100% 30.12 in 1.3 mi NW 1.2 mph - N/A   Mist
1:44 AM 51.8 °F 50.0 °F 94% 30.12 in 3.1 mi NW 1.2 mph - N/A   Mist
1:48 AM 51.8 °F 50.0 °F 94% 30.12 in 6.2 mi NW 1.2 mph - N/A   Partly Cloudy
1:55 AM 50.0 °F 50.0 °F 100% 30.12 in 3.1 mi NW 1.2 mph - N/A   Mist
1:56 AM 51.8 °F 50.0 °F 94% 30.12 in 5.0 mi NW 1.2 mph - N/A   Mist
2:09 AM 50.0 °F 50.0 °F 100% 30.12 in 6.2 mi NW 1.2 mph - N/A   Partly Cloudy
2:25 AM 50.0 °F 50.0 °F 100% 30.12 in 6.2 mi Calm Calm - N/A   Partly Cloudy
2:29 AM 50.0 °F 48.2 °F 94% 30.12 in 1.9 mi NW 1.2 mph - N/A   Mist
2:33 AM 48.2 °F 48.2 °F 100% 30.12 in 1.6 mi NW 1.2 mph - N/A   Mostly Cloudy
2:37 AM 50.0 °F 48.2 °F 94% 30.12 in 0.6 mi NW 1.2 mph - N/A Fog Fog
2:47 AM 50.0 °F 48.2 °F 94% 30.12 in 0.6 mi NW 1.2 mph - N/A Fog Fog
2:55 AM 50.0 °F 50.0 °F 100% 30.12 in 1.6 mi NW 1.2 mph - N/A   Overcast
3:15 AM 50.0 °F 50.0 °F 100% 30.12 in 3.7 mi North 3.5 mph - N/A   Overcast
3:20 AM 51.8 °F 50.0 °F 94% 30.12 in 4.3 mi NNE 2.3 mph - N/A   Overcast
3:25 AM 51.8 °F 50.0 °F 94% 30.12 in 3.7 mi ENE 1.2 mph - N/A   Overcast
3:29 AM 51.8 °F 50.0 °F 94% 30.12 in 2.5 mi NE 1.2 mph - N/A   Overcast
3:36 AM 51.8 °F 50.0 °F 94% 30.12 in 2.2 mi North 1.2 mph - N/A   Overcast
3:51 AM 51.8 °F 51.8 °F 100% 30.12 in - North 1.2 mph - N/A   Overcast
3:55 AM 51.8 °F 51.8 °F 100% 30.12 in - North 1.2 mph - N/A   Overcast
4:03 AM 53.6 °F 53.6 °F 100% 30.12 in - Calm Calm - N/A   Overcast
4:25 AM 53.6 °F 53.6 °F 100% 30.09 in 1.8 mi South 1.2 mph - N/A   Overcast
4:55 AM 53.6 °F 53.6 °F 100% 30.09 in - South 1.2 mph - N/A Fog Fog
4:59 AM 53.6 °F 53.6 °F 100% 30.09 in 0.9 mi Calm Calm - N/A   Mostly Cloudy
5:03 AM 53.6 °F 53.6 °F 100% 30.09 in 0.9 mi Calm Calm - N/A   Mostly Cloudy
5:16 AM 53.6 °F 53.6 °F 100% 30.09 in - Calm Calm - N/A   Overcast
5:25 AM 53.6 °F 53.6 °F 100% 30.09 in 1.6 mi SSW 1.2 mph - N/A   Overcast
5:31 AM 53.6 °F 51.8 °F 94% 30.09 in - WNW 1.2 mph - N/A Fog Fog
5:39 AM 53.6 °F 53.6 °F 100% 30.09 in 0.2 mi NW 1.2 mph - N/A Fog Fog
5:40 AM 51.8 °F 51.8 °F 100% 30.09 in 0.1 mi NW 1.2 mph - N/A Fog Fog
5:55 AM 51.8 °F 51.8 °F 100% 30.09 in 0.2 mi NW 1.2 mph - N/A Fog Fog
6:25 AM 51.8 °F 50.0 °F 94% 30.06 in 0.2 mi South 1.2 mph - N/A Fog Fog
6:55 AM 51.8 °F 51.8 °F 100% 30.06 in 0.5 mi Calm Calm - N/A Fog Fog
7:08 AM 53.6 °F 51.8 °F 94% 30.06 in 0.8 mi South 1.2 mph - N/A   Overcast
7:09 AM 53.6 °F 53.6 °F 100% 30.06 in 0.4 mi South 1.2 mph - N/A Fog Fog
7:25 AM 53.6 °F 53.6 °F 100% 30.06 in 0.2 mi South 2.3 mph - N/A Fog Fog
7:47 AM 53.6 °F 53.6 °F 100% 30.06 in 0.1 mi WSW 2.3 mph - N/A Fog Fog
7:55 AM 53.6 °F 53.6 °F 100% 30.06 in 0.1 mi West 2.3 mph - N/A Fog Fog
8:25 AM 55.4 °F 55.4 °F 100% 30.06 in 0.1 mi SW 2.3 mph - N/A Fog Fog
8:35 AM 55.4 °F 53.6 °F 94% 30.06 in 0.1 mi SW 2.3 mph - N/A Fog Fog
8:55 AM 55.4 °F 53.6 °F 94% 30.06 in 0.1 mi WSW 2.3 mph - N/A Fog Fog
9:25 AM 55.4 °F 55.4 °F 100% 30.06 in 0.1 mi SSW 3.5 mph - N/A Fog Fog
9:26 AM 55.4 °F 55.4 °F 100% 30.06 in 0.1 mi SSW 3.5 mph - N/A Fog Fog
9:30 AM 55.4 °F 55.4 °F 100% 30.06 in 0.1 mi SSW 3.5 mph - N/A Fog Fog
9:35 AM 55.4 °F 55.4 °F 100% 30.06 in 0.1 mi SSW 2.3 mph - N/A Fog Fog
9:42 AM 55.4 °F 55.4 °F 100% 30.06 in 0.2 mi SW 2.3 mph - N/A Fog Fog
9:49 AM 55.4 °F 55.4 °F 100% 30.06 in 0.3 mi SW 2.3 mph - N/A Fog Fog
9:55 AM 55.4 °F 55.4 °F 100% 30.06 in - SW 2.3 mph - N/A Fog Fog
10:05 AM 55.4 °F 55.4 °F 100% 30.06 in 0.5 mi SW 1.2 mph - N/A Fog Fog
10:15 AM 57.2 °F 55.4 °F 94% 30.06 in 1.1 mi SSW 1.2 mph - N/A   Mostly Cloudy
10:21 AM 57.2 °F 57.2 °F 100% 30.06 in 1.2 mi SSW 1.2 mph - N/A   Overcast
10:25 AM 57.2 °F 57.2 °F 100% 30.06 in 1.2 mi South 1.2 mph - N/A   Overcast
10:36 AM 57.2 °F 57.2 °F 100% 30.06 in 1.5 mi South 1.2 mph - N/A   Overcast
10:55 AM 57.2 °F 57.2 °F 100% 30.06 in 1.6 mi WNW 1.2 mph - N/A   Overcast
10:57 AM 59.0 °F 57.2 °F 94% 30.06 in 1.6 mi NW 1.2 mph - N/A   Overcast
11:09 AM 59.0 °F 57.2 °F 94% 30.06 in 1.8 mi NW 1.2 mph - N/A   Overcast
11:13 AM 59.0 °F 57.2 °F 94% 30.06 in 1.8 mi NW 1.2 mph - N/A   Overcast
11:14 AM 59.0 °F 57.2 °F 94% 30.06 in 1.7 mi West 1.2 mph - N/A   Overcast
11:18 AM 59.0 °F 59.0 °F 100% 30.06 in 1.7 mi West 1.2 mph - N/A   Overcast
11:21 AM 59.0 °F 59.0 °F 100% 30.06 in 1.6 mi WSW 1.2 mph - N/A   Overcast
11:25 AM 59.0 °F 59.0 °F 100% 30.06 in 1.6 mi WSW 1.2 mph - N/A   Overcast
11:55 AM 60.8 °F 59.0 °F 94% 30.04 in 1.6 mi SE 1.2 mph - N/A   Overcast
11:59 AM 60.8 °F 60.8 °F 100% 30.04 in 1.6 mi SSE 1.2 mph - N/A   Overcast
12:05 PM 60.8 °F 60.8 °F 100% 30.04 in 1.8 mi West 1.2 mph - N/A   Overcast
12:15 PM 60.8 °F 60.8 °F 100% 30.04 in - SSW 1.2 mph - N/A   Overcast
12:25 PM 60.8 °F 60.8 °F 100% 30.04 in 2.2 mi SSW 1.2 mph - N/A   Overcast
12:26 PM 60.8 °F 60.8 °F 100% 30.04 in - SSW 1.2 mph - N/A   Overcast
12:39 PM 60.8 °F 60.8 °F 100% 30.04 in - South 2.3 mph - N/A   Overcast
12:42 PM 60.8 °F 60.8 °F 100% 30.04 in - South 2.3 mph - N/A   Overcast
12:55 PM 62.6 °F 60.8 °F 94% 30.04 in - SSW 2.3 mph - N/A   Overcast
12:58 PM 62.6 °F 60.8 °F 94% 30.04 in 3.1 mi South 2.3 mph - N/A   Overcast
1:12 PM 62.6 °F 59.0 °F 88% 30.04 in 3.1 mi South 2.3 mph - N/A   Overcast
1:25 PM 64.4 °F 59.0 °F 83% 30.04 in 3.1 mi SW 2.3 mph - N/A   Overcast
1:27 PM 64.4 °F 59.0 °F 83% 30.04 in 3.7 mi SSW 2.3 mph - N/A   Overcast
1:37 PM 64.4 °F 57.2 °F 77% 30.04 in 3.7 mi South 2.3 mph - N/A   Overcast
1:49 PM 64.4 °F 57.2 °F 77% 30.04 in 5.0 mi SSW 2.3 mph - N/A   Overcast
1:55 PM 64.4 °F 59.0 °F 83% 30.04 in 4.3 mi SSW 2.3 mph - N/A   Overcast
2:08 PM 64.4 °F 59.0 °F 83% 30.04 in 4.3 mi South 1.2 mph - N/A   Overcast
2:25 PM 66.2 °F 59.0 °F 78% 30.01 in 4.3 mi WSW 2.3 mph - N/A   Haze
2:37 PM 66.2 °F 55.4 °F 68% 30.01 in 5.0 mi SSW 2.3 mph - N/A   Haze
2:41 PM 66.2 °F 55.4 °F 68% 30.01 in 4.3 mi South 2.3 mph - N/A   Haze
2:45 PM 66.2 °F 53.6 °F 64% 30.01 in 5.0 mi SSW 2.3 mph - N/A   Haze
2:55 PM 66.2 °F 53.6 °F 64% 30.01 in 5.0 mi SE 1.2 mph - N/A   Haze
3:00 PM 66.2 °F 55.4 °F 68% 30.01 in 4.3 mi NE 2.3 mph - N/A   Haze
3:08 PM 66.2 °F 55.4 °F 68% 30.01 in 5.0 mi North 3.5 mph - N/A   Haze
3:13 PM 66.2 °F 55.4 °F 68% 30.01 in 4.3 mi North 3.5 mph - N/A   Haze
3:25 PM 66.2 °F 55.4 °F 68% 30.01 in 4.3 mi NNE 3.5 mph - N/A   Haze
3:36 PM 66.2 °F 53.6 °F 64% 30.01 in 5.0 mi North 3.5 mph - N/A   Haze
3:40 PM 66.2 °F 55.4 °F 68% 30.01 in 4.3 mi North 3.5 mph - N/A   Haze
3:51 PM 66.2 °F 55.4 °F 68% 30.01 in 5.0 mi NNE 2.3 mph - N/A   Haze
3:55 PM 66.2 °F 55.4 °F 68% 30.01 in 4.3 mi NE 2.3 mph - N/A   Haze
3:59 PM 66.2 °F 55.4 °F 68% 30.01 in 5.0 mi NE 2.3 mph - N/A   Haze
4:04 PM 66.2 °F 55.4 °F 68% 30.01 in 4.3 mi NNE 2.3 mph - N/A   Haze
4:08 PM 66.2 °F 55.4 °F 68% 30.01 in 5.0 mi NE 3.5 mph - N/A   Haze
4:14 PM 66.2 °F 55.4 °F 68% 30.01 in 4.3 mi NNE 3.5 mph - N/A   Haze
4:25 PM 66.2 °F 55.4 °F 68% 29.98 in 4.3 mi North 3.5 mph - N/A   Haze
4:36 PM 66.2 °F 53.6 °F 64% 29.98 in 5.0 mi NE 3.5 mph - N/A   Haze
4:41 PM 66.2 °F 55.4 °F 68% 29.98 in 4.3 mi NNE 3.5 mph - N/A   Haze
4:45 PM 66.2 °F 55.4 °F 68% 29.98 in 5.0 mi NNE 3.5 mph - N/A   Haze
4:55 PM 66.2 °F 55.4 °F 68% 29.98 in 5.0 mi North 3.5 mph - N/A   Haze
5:08 PM 66.2 °F 55.4 °F 68% 29.98 in 5.0 mi NE 3.5 mph - N/A   Haze
5:14 PM 66.2 °F 55.4 °F 68% 29.98 in 4.3 mi NE 3.5 mph - N/A   Haze
5:15 PM 66.2 °F 57.2 °F 73% 29.98 in 5.0 mi NNE 3.5 mph - N/A   Haze
5:25 PM 66.2 °F 55.4 °F 68% 29.98 in 5.0 mi NNE 2.3 mph - N/A   Haze
5:38 PM 66.2 °F 57.2 °F 73% 29.98 in 5.0 mi North 3.5 mph - N/A   Haze
5:47 PM 66.2 °F 57.2 °F 73% 29.98 in 4.3 mi NNE 3.5 mph - N/A   Haze
5:51 PM 66.2 °F 57.2 °F 73% 29.98 in 5.0 mi NNE 3.5 mph - N/A   Haze
5:55 PM 66.2 °F 57.2 °F 73% 29.98 in 5.0 mi NNE 3.5 mph - N/A   Haze
6:00 PM 66.2 °F 57.2 °F 73% 29.98 in 4.3 mi NNE 3.5 mph - N/A   Haze
6:04 PM 66.2 °F 55.4 °F 68% 29.98 in 5.0 mi NNE 4.6 mph - N/A   Haze
6:09 PM 66.2 °F 55.4 °F 68% 29.98 in 4.3 mi NNE 3.5 mph - N/A   Haze
6:25 PM 64.4 °F 57.2 °F 77% 29.98 in 5.0 mi NNE 4.6 mph - N/A   Haze
6:29 PM 64.4 °F 57.2 °F 77% 29.98 in 4.3 mi NE 5.8 mph - N/A   Haze
6:55 PM 62.6 °F 57.2 °F 82% 29.95 in 3.7 mi NE 5.8 mph - N/A   Haze
7:25 PM 60.8 °F 55.4 °F 82% 29.98 in 3.1 mi NE 4.6 mph - N/A   Mist
7:29 PM 60.8 °F 55.4 °F 82% 29.98 in - NE 5.8 mph - N/A   Mist
7:55 PM 59.0 °F 55.4 °F 88% 29.98 in - NE 5.8 mph - N/A   Mist
8:25 PM 59.0 °F 55.4 °F 88% 29.98 in 2.5 mi NE 4.6 mph - N/A   Mist
8:31 PM 57.2 °F 55.4 °F 94% 29.98 in - NE 4.6 mph - N/A   Mist
8:32 PM 57.2 °F 55.4 °F 94% 29.98 in - NE 4.6 mph - N/A   Mist
8:43 PM 57.2 °F 55.4 °F 94% 29.98 in - NE 4.6 mph - N/A   Mist
8:46 PM 57.2 °F 55.4 °F 94% 29.98 in - NE 4.6 mph - N/A   Mist
8:51 PM 57.2 °F 55.4 °F 94% 29.98 in 2.2 mi NE 4.6 mph - N/A   Mist
8:55 PM 57.2 °F 55.4 °F 94% 29.98 in - NE 4.6 mph - N/A   Mist
9:06 PM 55.4 °F 53.6 °F 94% 29.98 in - NE 4.6 mph - N/A   Mist
9:10 PM 55.4 °F 53.6 °F 94% 29.98 in - NE 4.6 mph - N/A   Mist
9:25 PM 57.2 °F 53.6 °F 88% 29.98 in - NE 4.6 mph - N/A   Mist
9:55 PM 57.2 °F 53.6 °F 88% 29.98 in - NE 4.6 mph - N/A   Partly Cloudy
10:05 PM 55.4 °F 53.6 °F 94% 29.98 in - NE 4.6 mph - N/A   Scattered Clouds
10:06 PM 55.4 °F 53.6 °F 94% 29.98 in - NE 3.5 mph - N/A   Mostly Cloudy
10:25 PM 55.4 °F 53.6 °F 94% 29.98 in - NE 3.5 mph - N/A   Overcast
10:55 PM 55.4 °F 53.6 °F 94% 29.98 in - NE 3.5 mph - N/A   Overcast
11:00 PM 55.4 °F 53.6 °F 94% 29.98 in - NE 3.5 mph - N/A   Overcast
11:25 PM 55.4 °F 53.6 °F 94% 29.98 in - NE 4.6 mph - N/A   Overcast
11:29 PM 55.4 °F 53.6 °F 94% 29.98 in 2.2 mi NE 4.6 mph - N/A   Overcast
11:44 PM 57.2 °F 55.4 °F 94% 29.98 in - ENE 4.6 mph - N/A   Overcast
11:48 PM 57.2 °F 55.4 °F 94% 29.98 in - ENE 4.6 mph - N/A   Overcast
11:55 PM 57.2 °F 55.4 °F 94% 29.98 in - ENE 5.8 mph - N/A   Overcast
11:59 PM 57.2 °F 55.4 °F 94% 29.98 in - ENE 5.8 mph - N/A   Overcast